Change the Weather History Date:

Friday, February 21, 2014

  Actual Average Record
Temperature  
Mean Temperature 24 °F -  
Max Temperature 33 °F 31 °F 51 °F (2007)
Min Temperature 14 °F 19 °F -27 °F (2008)
Degree Days  
Heating Degree Days 42    
Moisture  
Dew Point 14 °F    
Average Humidity 79    
Maximum Humidity 100    
Minimum Humidity 62    
Precipitation  
Precipitation 0.01 in - - ()
Snow  
Snow 0.00 in - - ()
Snow Depth 12.00 in    
Sea Level Pressure  
Sea Level Pressure 29.34 in    
Wind  
Wind Speed 22 mph (WSW)    
Max Wind Speed 28 mph    
Max Gust Speed 41 mph    
Visibility 8 miles    
Events Rain , Snow    
Averages and records for this station are not official NWS values.
T = Trace of Precipitation, MM = Missing Value Source: NWS Daily Summary

Daily Weather History Graph

Daily Weather History Graph

Search for Another Location

Airport or City:

Trip Planner

Search our weather history database for the weather conditions in past years. The results will help you decide how hot, cold, wet, or windy it might be!

Date:

Astronomy

Feb. 21, 2014 Rise Set
Actual Time 6:50 AM CST 5:38 PM CST
Civil Twilight 6:21 AM CST 6:08 PM CST
Nautical Twilight 5:48 AM CST 6:41 PM CST
Astronomical Twilight 5:14 AM CST 7:15 PM CST
Moon No Moon Rise 10:01 AM CST (2/21)
Length of Visible Light 11h 46m
Length of Day
10h 48m
Waning Gibbous, 60% of the Moon is Illuminated
Feb 21
Waning Gibbous
Feb 22
Last Quarter
Mar 1
New
Mar 8
First Quarter
Mar 16
Full

Hourly Weather History & Observations

Time (CST) Temp. Windchill Dew Point Humidity Pressure Visibility Wind Dir Wind Speed Gust Speed Precip Events Conditions
12:14 AM 32.0 °F 18.9 °F 32.0 °F 100% 29.03 in 10.0 mi West 24.2 mph 31.1 mph N/A   Mostly Cloudy
12:58 AM 33.3 °F 21.5 °F 31.8 °F 94% 29.09 in 10.0 mi WSW 20.7 mph 38.0 mph 0.00 in Rain Light Rain
1:23 AM 32.0 °F 18.6 °F 30.2 °F 93% 29.07 in 10.0 mi West 25.3 mph 38.0 mph N/A Rain Light Rain
1:30 AM 32.0 °F 20.5 °F 30.2 °F 93% 29.08 in 10.0 mi West 18.4 mph 32.2 mph N/A   Overcast
1:37 AM 32.0 °F 18.6 °F 30.2 °F 93% 29.08 in 10.0 mi West 25.3 mph 39.1 mph N/A Rain Light Rain
1:49 AM 30.2 °F 16.5 °F 26.6 °F 86% 29.09 in 10.0 mi WSW 24.2 mph 38.0 mph N/A   Overcast
1:55 AM 28.4 °F 14.1 °F 26.6 °F 93% 29.09 in 10.0 mi WSW 24.2 mph 33.4 mph N/A   Overcast
1:58 AM 28.4 °F 13.5 °F 26.6 °F 93% 29.14 in 10.0 mi West 26.5 mph 35.7 mph 0.00 in   Overcast
2:12 AM 28.4 °F 13.5 °F 24.8 °F 86% 29.10 in 10.0 mi West 26.5 mph 41.4 mph N/A   Overcast
2:17 AM 26.6 °F 11.1 °F 23.0 °F 86% 29.11 in 10.0 mi West 26.5 mph 41.4 mph N/A   Overcast
2:27 AM 26.6 °F 11.4 °F 23.0 °F 86% 29.12 in 10.0 mi West 25.3 mph 36.8 mph N/A   Overcast
2:58 AM 24.1 °F 9.0 °F 20.7 °F 87% 29.17 in 6.0 mi WSW 21.9 mph 35.7 mph 0.00 in Snow Light Snow
3:08 AM 23.0 °F 7.6 °F 19.4 °F 86% 29.15 in 10.0 mi WSW 21.9 mph 31.1 mph N/A   Overcast
3:13 AM 23.0 °F 8.3 °F 19.4 °F 86% 29.16 in 10.0 mi West 19.6 mph 29.9 mph N/A Snow Light Snow
3:51 AM 21.2 °F 7.3 °F 15.8 °F 80% 29.21 in 10.0 mi WSW 16.1 mph 26.5 mph N/A   Overcast
3:58 AM 20.3 °F 6.1 °F 15.4 °F 81% 29.26 in 10.0 mi WSW 16.1 mph 28.8 mph 0.00 in   Overcast
4:21 AM 19.4 °F 4.1 °F 14.0 °F 80% 29.23 in 10.0 mi WSW 18.4 mph 27.6 mph N/A Snow Light Snow
4:58 AM 18.7 °F 3.1 °F 13.5 °F 80% 29.31 in 10.0 mi WSW 18.4 mph 27.6 mph 0.00 in Snow Light Snow
5:08 AM 17.6 °F 0.5 °F 12.2 °F 79% 29.27 in 10.0 mi West 21.9 mph 33.4 mph N/A Snow Light Snow
5:13 AM 17.6 °F -0.3 °F 12.2 °F 79% 29.26 in 10.0 mi West 24.2 mph 34.5 mph N/A Snow Light Snow
5:18 AM 17.6 °F 0.9 °F 12.2 °F 79% 29.27 in 9.0 mi West 20.7 mph 34.5 mph N/A Snow Light Snow
5:58 AM 17.2 °F -0.8 °F 11.8 °F 79% 29.34 in 7.0 mi West 24.2 mph 33.4 mph 0.00 in Snow Light Snow
6:08 AM 17.6 °F -1.0 °F 12.2 °F 79% 29.28 in 7.0 mi West 26.5 mph 33.4 mph N/A Snow Light Snow
6:13 AM 17.6 °F 1.3 °F 10.4 °F 73% 29.29 in 8.0 mi West 19.6 mph 33.4 mph N/A Snow Light Snow
6:38 AM 15.8 °F -2.3 °F 10.4 °F 79% 29.30 in 4.0 mi West 23.0 mph 32.2 mph N/A Snow Light Snow
6:43 AM 15.8 °F -1.9 °F 10.4 °F 79% 29.31 in 2.5 mi West 21.9 mph 32.2 mph N/A Snow Light Snow
6:48 AM 15.8 °F 0.3 °F 10.4 °F 79% 29.31 in 3.0 mi WSW 16.1 mph 32.2 mph N/A Snow Light Snow
6:58 AM 15.8 °F -0.2 °F 11.3 °F 82% 29.36 in 2.0 mi West 17.3 mph 29.9 mph 0.00 in Snow Light Snow
7:03 AM 15.8 °F -0.6 °F 10.4 °F 79% 29.31 in 2.0 mi West 18.4 mph 29.9 mph N/A Snow Light Snow
7:08 AM 15.8 °F -0.6 °F 10.4 °F 79% 29.32 in 1.8 mi West 18.4 mph 24.2 mph N/A Snow Light Snow
7:28 AM 15.8 °F -2.7 °F 10.4 °F 79% 29.32 in 4.0 mi West 24.2 mph 36.8 mph N/A Snow Light Snow
7:58 AM 15.8 °F -0.2 °F 10.4 °F 79% 29.39 in 3.0 mi West 17.3 mph 29.9 mph N/A Snow Light Snow
8:13 AM 14.0 °F -4.3 °F 8.6 °F 79% 29.34 in 3.0 mi WSW 21.9 mph 34.5 mph N/A Snow Blowing Snow
8:58 AM 14.0 °F -2.5 °F 6.8 °F 73% 29.42 in 3.0 mi West 17.3 mph 31.1 mph N/A Snow Blowing Snow
9:03 AM 14.0 °F -1.4 °F 8.6 °F 79% 29.37 in 2.5 mi West 15.0 mph 21.9 mph N/A Snow Light Snow
9:08 AM 14.0 °F -4.3 °F 8.6 °F 79% 29.37 in 3.0 mi WSW 21.9 mph 28.8 mph N/A Snow Light Snow
9:29 AM 14.0 °F -4.7 °F 6.8 °F 73% 29.38 in 7.0 mi West 23.0 mph 29.9 mph N/A   Overcast
9:30 AM 14.0 °F -4.7 °F 6.8 °F 73% 29.37 in 7.0 mi West 23.0 mph 29.9 mph N/A Snow Light Snow
9:35 AM 14.0 °F -3.4 °F 6.8 °F 73% 29.38 in 8.0 mi West 19.6 mph 29.9 mph N/A Snow Light Snow
9:58 AM 14.0 °F -5.1 °F 6.8 °F 73% 29.44 in 4.0 mi WSW 24.2 mph 40.3 mph N/A Snow Blowing Snow
10:58 AM 15.8 °F 2.1 °F 8.6 °F 73% 29.47 in 3.0 mi WSW 12.7 mph 31.1 mph N/A Snow Blowing Snow
11:58 AM 15.8 °F -2.3 °F 10.4 °F 79% 29.49 in 5.0 mi WSW 23.0 mph 34.5 mph N/A Snow Blowing Snow
12:58 PM 19.4 °F 2.5 °F 12.2 °F 74% 29.49 in 6.0 mi WSW 23.0 mph 34.5 mph N/A Snow Light Snow
1:58 PM 21.2 °F 3.5 °F 12.2 °F 68% 29.51 in 10.0 mi WSW 27.6 mph 34.5 mph N/A Snow Blowing Snow
2:58 PM 23.0 °F 6.3 °F 12.2 °F 63% 29.54 in 10.0 mi WSW 26.5 mph 33.4 mph N/A   Partly Cloudy
3:58 PM 23.0 °F 7.6 °F 12.2 °F 63% 29.58 in 10.0 mi WSW 21.9 mph 36.8 mph N/A   Partly Cloudy
4:58 PM 21.7 °F 4.9 °F 10.4 °F 62% 29.60 in 10.0 mi WSW 25.3 mph 33.4 mph N/A   Clear
5:58 PM 19.4 °F 2.8 °F 8.6 °F 63% 29.65 in 10.0 mi WSW 21.9 mph 31.1 mph N/A   Clear
6:58 PM 18.7 °F 0.8 °F 8.8 °F 65% 29.68 in 10.0 mi WSW 25.3 mph 31.1 mph N/A   Clear
7:58 PM 17.8 °F 2.4 °F 8.8 °F 68% 29.71 in 10.0 mi WSW 17.3 mph 27.6 mph N/A   Clear
8:58 PM 17.4 °F 1.0 °F 8.6 °F 68% 29.73 in 10.0 mi WSW 19.6 mph 27.6 mph N/A   Clear
9:58 PM 17.4 °F 2.4 °F 8.6 °F 68% 29.75 in 10.0 mi WSW 16.1 mph 27.6 mph N/A   Clear
10:58 PM 17.1 °F 1.5 °F 8.6 °F 69% 29.75 in 10.0 mi WSW 17.3 mph 28.8 mph N/A   Clear
11:58 PM 16.5 °F 1.8 °F 8.1 °F 69% 29.76 in 10.0 mi WSW 15.0 mph 26.5 mph N/A   Clear